Flag for Canada Weather past 2 weeks in Red Deer, Alberta, Canada

Now
68 °F

Partly sunny.


Feels Like: 68 °F
Forecast: 54 / 77 °F
Wind: 5 mph from Northeast

Location: Red Deer

Current Time: Aug 1, 2015 at 8:45:55 PM

Latest Report: Aug 1, 2015 at 8:00 PM


Visibility: 15 mi

Pressure: 30.03 "Hg (27.17 "Hg at 857m altitude)

Humidity: 69%

Dew point: 57 °F

Location of Red DeerLocation

Historic Weather in Red Deer — Graph

°F

Red Deer temperature yesterday

Maximum temperature yesterday: 82 °F (at 5:00 PM)
Minimum temperature yesterday: 46 °F (at 6:00 AM)
Average temperature yesterday: 65 °F

Past Weeks' High & Low Weather Summary

 TemperatureHumidityPressure
High82 °F (Jul 31, 5:00 PM)100% (Jul 22, 5:00 AM)30.27 "Hg (Jul 22, 5:00 AM)
Low43 °F (Jul 23, 4:00 AM)35% (Jul 31, 5:00 PM)29.69 "Hg (Jul 21, 7:00 PM)
Average60 °F73%29.95 "Hg
* Reported Jul 17 7:00 PM — Aug 1 7:00 PM, Red Deer, Weather by CustomWeather, © 2015

Note: Actual official high and low records may vary slightly from our data, if they occured in-between our weather recording intervals... More about our weather records

Advertising

Red Deer weather history for previous 24 hours

 ConditionsComfort  
Time TempWeatherWind HumidityBarometerVisibility
7:00 PM
Sat, Aug 1
68 °FPartly sunny.6 mph69%30.03 "Hg15 mi
6:00 PM72 °FBroken clouds.7 mph57%30.02 "Hg15 mi
5:00 PM72 °FBroken clouds.9 mph61%30.01 "Hg15 mi
4:00 PM72 °FBroken clouds.7 mph61%30.01 "Hg15 mi
3:00 PM73 °FBroken clouds.8 mph53%30.01 "Hg15 mi
2:00 PM72 °FBroken clouds.13 mph57%30.01 "Hg15 mi
1:00 PM72 °FScattered clouds.10 mph53%30.01 "Hg15 mi
12:00 PM70 °FScattered clouds.12 mph60%30.01 "Hg15 mi
11:00 AM68 °FScattered clouds.10 mph64%30.02 "Hg15 mi
10:00 AM66 °FScattered clouds.10 mph64%30.01 "Hg15 mi
9:00 AM63 °FPartly sunny.7 mph83%30.01 "Hg15 mi
8:00 AM59 °FPartly sunny.3 mph88%29.99 "Hg15 mi
7:00 AM54 °FScattered clouds.3 mph94%29.97 "Hg15 mi
6:00 AM52 °FPassing clouds.8 mph94%29.96 "Hg15 mi
5:00 AM54 °FPassing clouds.7 mph94%29.96 "Hg15 mi
4:00 AM54 °FPassing clouds.3 mph94%29.96 "Hg15 mi
3:00 AM55 °FPassing clouds.5 mph88%29.97 "Hg15 mi
2:00 AM57 °FPassing clouds.2 mph88%29.98 "Hg15 mi
1:00 AM61 °FPassing clouds.5 mph83%29.97 "Hg15 mi
12:00 AM61 °FPassing clouds.7 mph83%29.98 "Hg15 mi
11:00 PM
Fri, Jul 31
59 °FPassing clouds.8 mph88%29.98 "Hg15 mi
10:00 PM63 °FScattered clouds.3 mph77%29.98 "Hg15 mi
9:00 PM68 °FScattered clouds.7 mph73%29.96 "Hg15 mi
8:00 PM75 °FScattered clouds.5 mph65%29.96 "Hg15 mi
Weather by CustomWeather, © 2015

See weather overviewHow to use our weather pages